{"data":{"norad_id":62317,"intl_designator":"2024-239S","name":"STARLINK-32519","alt_names":[],"object_type":"PAYLOAD","status":"ACTIVE","operator":null,"country":"US","launch_date":"2024-12-13","launch_site_code":"AFWTR","launch_vehicle":null,"mission":null,"orbit_class":"UNKNOWN","rcs_meters":null,"size_class":null,"mass_kg":null,"dimensions":null,"purposes":["comms"],"wikipedia_slug":null,"has_3d_model":false,"image_url":null,"decayed_at":null,"tle_current":{"epoch":"2026-09-21T05:42:43.941312Z","epoch_age_seconds":113642,"freshness":"FRESH","line1":"1 62317U 24239S   26264.23800858  .00009667  00000+0  32278-3 0  9995","line2":"2 62317  53.1623 351.3852 0001663  67.8674 292.2504 15.31709451 99527","mean_motion":15.31709451,"eccentricity":0.0001663,"inclination_deg":53.1623,"raan_deg":351.3852,"arg_perigee_deg":67.8674,"mean_anomaly_deg":292.2504,"bstar":0.00032278,"rev_number":9952,"period_min":94.012607878072,"perigee_km":469.57285887213,"apogee_km":471.85078599047,"semimajor_km":6848.8488224313,"source":"CELESTRAK","updated_at":"2026-09-22T09:00:49.574251Z"}}}